Islip, NY

1:00 AM EST on December 11, 2017 (GMT -0500)
Long Island Mac Arthur

Weather History for KISP - January, 2013

Change the Weather History Date:

Sunday, January 6, 2013

  Actual Average Record
Temperature  
Mean Temperature 37 °F 31 °F  
Max Temperature 45 °F 38 °F 68 °F (2007)
Min Temperature 29 °F 24 °F 6 °F (1996)
Degree Days  
Heating Degree Days 28 34  
Month to date heating degree days 197 203  
Since 1 July heating degree days 1910 2130  
Cooling Degree Days 0 0  
Month to date cooling degree days 0 0  
Year to date cooling degree days 0 0  
Moisture  
Dew Point 29 °F    
Average Humidity 74    
Maximum Humidity 89    
Minimum Humidity 58    
Precipitation  
Precipitation T in 0.12 in 0.75 in (2014)
Month to date precipitation T 0.72  
Year to date precipitation T 0.72  
Snow  
Snow 0.10 in 0.30 in 4.40 in (1989)
Month to date snowfall 0.1 1.4  
Since 1 July snowfall 4.9 7.3  
Snow Depth 0.00 in    
Sea Level Pressure  
Sea Level Pressure 30.07 in    
Wind  
Wind Speed 5 mph (SW)    
Max Wind Speed 14 mph    
Max Gust Speed 16 mph    
Visibility 7 miles    
Events Snow    
T = Trace of Precipitation, MM = Missing Value Source: NWS Daily Summary

Daily Weather History Graph

Daily Weather History Graph

Search for Another Location

Airport or City:

Trip Planner

Search our weather history database for the weather conditions in past years. The results will help you decide how hot, cold, wet, or windy it might be!

Date:

Astronomy

Jan. 06, 2013 Rise Set
Actual Time 7:16 AM EST 4:40 PM EST
Civil Twilight 6:46 AM EST 5:10 PM EST
Nautical Twilight 6:11 AM EST 5:45 PM EST
Astronomical Twilight 5:38 AM EST 6:18 PM EST
Moon 1:27 AM EST (1/6) 12:06 PM EST (1/6)
Length of Visible Light 10h 24m
Length of Day
9h 23m
Waning Crescent, 33% of the Moon is Illuminated
Jan 6
Waning Crescent
Jan 11
New
Jan 18
First Quarter
Jan 26
Full
Feb 3
Last Quarter

Hourly Weather History & Observations

Time (EST) Temp. Windchill Dew Point Humidity Pressure Visibility Wind Dir Wind Speed Gust Speed Precip Events Conditions
12:56 AM 30.9 °F 27.5 °F 23.0 °F 72% 30.22 in 10.0 mi West 3.5 mph - N/A   Overcast
1:56 AM 32.0 °F 27.5 °F 24.1 °F 73% 30.21 in 10.0 mi WSW 4.6 mph - N/A   Overcast
2:56 AM 33.1 °F - 24.1 °F 70% 30.19 in 10.0 mi Calm Calm - N/A   Overcast
3:56 AM 34.0 °F 29.8 °F 25.0 °F 70% 30.15 in 10.0 mi WSW 4.6 mph - N/A   Overcast
4:37 AM 33.8 °F 25.8 °F 26.6 °F 75% 30.14 in 2.5 mi SW 10.4 mph - 0.00 in Snow Light Snow
4:56 AM 33.1 °F 26.1 °F 28.0 °F 82% 30.14 in 2.5 mi WSW 8.1 mph - 0.00 in Snow Light Snow
5:06 AM 33.8 °F 27.7 °F 28.4 °F 81% 30.13 in 3.0 mi WSW 6.9 mph - 0.00 in Snow Light Snow
5:34 AM 33.8 °F 27.0 °F 28.4 °F 81% 30.13 in 2.0 mi SW 8.1 mph - 0.00 in Snow Light Snow
5:56 AM 33.1 °F 28.7 °F 28.9 °F 85% 30.12 in 2.5 mi WSW 4.6 mph - 0.00 in Snow Light Snow
6:33 AM 33.8 °F 30.8 °F 30.2 °F 87% 30.12 in 2.5 mi SW 3.5 mph - 0.00 in   Overcast
6:53 AM 33.8 °F 28.6 °F 30.2 °F 87% 30.11 in 1.5 mi SSW 5.8 mph - 0.00 in   Overcast
6:56 AM 33.1 °F 28.7 °F 30.0 °F 89% 30.11 in 1.5 mi SSW 4.6 mph - 0.00 in   Overcast
7:04 AM 33.8 °F - 30.2 °F 87% 30.11 in 1.0 mi Calm Calm - N/A   Overcast
7:56 AM 33.1 °F - 30.9 °F 92% 30.11 in 1.5 mi Calm Calm - N/A   Overcast
8:56 AM 35.1 °F - 32.0 °F 89% 30.10 in 2.0 mi Calm Calm - N/A   Overcast
9:32 AM 37.4 °F 31.4 °F 33.8 °F 87% 30.09 in 5.0 mi WSW 8.1 mph - N/A   Mostly Cloudy
9:56 AM 37.0 °F 30.4 °F 33.1 °F 86% 30.10 in 6.0 mi WSW 9.2 mph - N/A   Mostly Cloudy
10:56 AM 39.9 °F 33.9 °F 33.1 °F 77% 30.07 in 10.0 mi SW 9.2 mph - N/A   Mostly Cloudy
11:56 AM 42.1 °F 38.4 °F 32.0 °F 67% 30.02 in 10.0 mi WSW 5.8 mph - N/A   Scattered Clouds
12:56 PM 44.1 °F 38.6 °F 30.0 °F 58% 29.99 in 10.0 mi WSW 10.4 mph - N/A   Partly Cloudy
1:56 PM 44.1 °F 40.1 °F 30.9 °F 60% 29.98 in 10.0 mi SSW 6.9 mph - N/A   Partly Cloudy
2:56 PM 43.0 °F 38.2 °F 30.9 °F 62% 29.97 in 10.0 mi South 8.1 mph - N/A   Scattered Clouds
3:56 PM 42.1 °F 37.7 °F 30.0 °F 62% 29.96 in 10.0 mi SW 6.9 mph - N/A   Partly Cloudy
4:56 PM 39.0 °F 34.8 °F 28.9 °F 67% 29.97 in 10.0 mi SW 5.8 mph - N/A   Scattered Clouds
5:56 PM 39.0 °F 34.0 °F 30.9 °F 73% 29.99 in 10.0 mi SSW 6.9 mph - N/A   Scattered Clouds
6:56 PM 34.0 °F 28.8 °F 28.0 °F 79% 29.99 in 9.0 mi WSW 5.8 mph - N/A   Mostly Cloudy
7:56 PM 36.0 °F 32.1 °F 30.0 °F 79% 30.00 in 9.0 mi West 4.6 mph - N/A   Mostly Cloudy
8:56 PM 35.1 °F 30.1 °F 28.9 °F 78% 30.01 in 10.0 mi West 5.8 mph - N/A   Mostly Cloudy
9:56 PM 35.1 °F 31.0 °F 28.0 °F 76% 30.01 in 10.0 mi WSW 4.6 mph - N/A   Mostly Cloudy
10:56 PM 36.0 °F 32.1 °F 27.0 °F 70% 30.01 in 10.0 mi West 4.6 mph - N/A   Scattered Clouds
11:56 PM 30.9 °F 27.5 °F 24.1 °F 76% 30.02 in 10.0 mi West 3.5 mph - N/A   Scattered Clouds